FENGYUN 1C DEB, 30275

Orbit data source: Space-Track

FENGYUN 1C DEB, 30275 is space debris in SSO originally from a launch on Mon, 10 May 1999 UTC launched from the Taiyaun Space Center, China (TSC). Fengyun 1C debris stems from the Chinese weather satellite Fengyun-1C, which was intentionally destroyed by a Chinese anti-satellite missile in 2007. This event dramatically increased the amount of space debris, with thousands of trackable fragments posing hazards to satellites and human spaceflight. The Fengyun 1C debris cloud has become a focal point in discussions about space sustainability and the need for international regulations to prevent the creation of new debris.

Loading next visibility...
Identifier
30275, 1999-025YL
Orbit
SSO
Country
Flag of CNCN / PRC
Related business
Manufacturer
Unknown
Mission
Spacecraft
Bus & Motor
Unknown
Mass
Unknown
Launch date (UTC)
1999-05-10 (27 years ago)
Launch vehicle
Unknown
Launch site
Taiyaun Space Center, China (TSC)
Object type
Payload
Rocket body
Debris
Shape & HBR
Unknown shape, 0.1 m
Radar Cross Section
Medium (>0.1 m² and <1 m²)

Expand to show TLE details & history
Last TLE update: 12 hours ago

TLE from 12 hours ago
0 FENGYUN 1C DEB
1 30275U 99025YL  26263.99289059  .00003089  00000-0  82373-3 0  9998
2 30275  98.6207 358.5387 0036548  56.4170 359.8068 14.48777159 21543
Epoch: 2026-09-20T23:49Z
TLE epoch observation values (Epoch: 2026-09-20T23:49:45.746Z)
Latitude
55.36853°
Longitude
-11.39181°
Altitude
712.832 km
Speed
7.518 km/s
True Right ascension
23h 03m 42s
True Declination
55° 12' 23"
Sunlit
Object was in full shadow at epoch
Visualization orbit readout
Latitude
Unknown
Longitude
Unknown
Altitude
Unknown
Speed
Unknown
Apparent Right ascension
Unknown
Apparent Declination
Unknown
Sunlit
N/A
Visualization observer readout
Local Sidereal Time
04:58:40
Azimuth
Unknown
Elevation
Unknown
Doppler factor
Unknown
Orbital elements
Apogee altitude
752.728 km
Perigee altitude
700.794 km
Semi-major axis
7,104.898 km
Eccentricity
0.00365
Inclination
98.6207°
RAAN
358.5387°
Arg. of periapsis
56.417°
True anomaly
359.80538°
Mean anomaly
359.8068°
Eccentric anomaly
359.80609°
Mean motion
3.62415 °/min
Orbital period
99.33 mins
BSTAR
0.00082373
Loading maneuver chart data...
Computing Atmospheric mass density...

Documentation

Showing up to 5 results
|